Year,Month,Day,Hour,Minute,Value (Times are PST for temperature in C)
2008,09,16,00,00,13.00
2008,09,16,00,01,13.00
2008,09,16,00,02,13.00
2008,09,16,00,03,13.00
2008,09,16,00,04,13.00
2008,09,16,00,05,13.00
2008,09,16,00,06,13.00
2008,09,16,00,07,12.90
2008,09,16,00,08,12.90
2008,09,16,00,09,12.90
2008,09,16,00,10,12.90
2008,09,16,00,11,12.90
2008,09,16,00,12,12.90
2008,09,16,00,13,12.90
2008,09,16,00,14,12.90
2008,09,16,00,15,12.80
2008,09,16,00,16,12.80
2008,09,16,00,17,12.80
2008,09,16,00,18,12.80
2008,09,16,00,19,12.80
2008,09,16,00,20,12.80
2008,09,16,00,21,12.80
2008,09,16,00,22,12.80
2008,09,16,00,23,12.80
2008,09,16,00,24,12.80
2008,09,16,00,25,12.80
2008,09,16,00,26,12.80
2008,09,16,00,27,12.80
2008,09,16,00,28,12.80
2008,09,16,00,29,12.80
2008,09,16,00,30,12.80
2008,09,16,00,31,12.80
2008,09,16,00,32,12.80
2008,09,16,00,33,12.80
2008,09,16,00,34,12.80
2008,09,16,00,35,12.80
2008,09,16,00,36,12.70
2008,09,16,00,37,12.70
2008,09,16,00,38,12.70
2008,09,16,00,39,12.70
2008,09,16,00,40,12.70
2008,09,16,00,41,12.70
2008,09,16,00,42,12.70
2008,09,16,00,43,12.70
2008,09,16,00,44,12.70
2008,09,16,00,45,12.70
2008,09,16,00,46,12.70
2008,09,16,00,47,12.70
2008,09,16,00,48,12.70
2008,09,16,00,49,12.70
2008,09,16,00,50,12.60
2008,09,16,00,51,12.60
2008,09,16,00,52,12.60
2008,09,16,00,53,12.60
2008,09,16,00,54,12.60
2008,09,16,00,55,12.60
2008,09,16,00,56,12.60
2008,09,16,00,57,12.60
2008,09,16,00,58,12.50
2008,09,16,00,59,12.50
2008,09,16,01,00,12.50
2008,09,16,01,01,12.50
2008,09,16,01,02,12.40
2008,09,16,01,03,12.40
2008,09,16,01,04,12.40
2008,09,16,01,05,12.40
2008,09,16,01,06,12.40
2008,09,16,01,07,12.40
2008,09,16,01,08,12.40
2008,09,16,01,09,12.40
2008,09,16,01,10,12.40
2008,09,16,01,11,12.40
2008,09,16,01,12,12.40
2008,09,16,01,13,12.40
2008,09,16,01,14,12.40
2008,09,16,01,15,12.40
2008,09,16,01,16,12.40
2008,09,16,01,17,12.40
2008,09,16,01,18,12.30
2008,09,16,01,19,12.30
2008,09,16,01,20,12.30
2008,09,16,01,21,12.30
2008,09,16,01,22,12.30
2008,09,16,01,23,12.30
2008,09,16,01,24,12.30
2008,09,16,01,25,12.30
2008,09,16,01,26,12.30
2008,09,16,01,27,12.30
2008,09,16,01,28,12.30
2008,09,16,01,29,12.30
2008,09,16,01,30,12.30
2008,09,16,01,31,12.30
2008,09,16,01,32,12.30
2008,09,16,01,33,12.20
2008,09,16,01,34,12.20
2008,09,16,01,35,12.20
2008,09,16,01,36,12.20
2008,09,16,01,37,12.20
2008,09,16,01,38,12.20
2008,09,16,01,39,12.20
2008,09,16,01,40,12.20
2008,09,16,01,41,12.20
2008,09,16,01,42,12.20
2008,09,16,01,43,12.20
2008,09,16,01,44,12.20
2008,09,16,01,45,12.20
2008,09,16,01,46,12.20
2008,09,16,01,47,12.20
2008,09,16,01,48,12.20
2008,09,16,01,49,12.20
2008,09,16,01,50,12.20
2008,09,16,01,51,12.20
2008,09,16,01,52,12.10
2008,09,16,01,53,12.10
2008,09,16,01,54,12.10
2008,09,16,01,55,12.10
2008,09,16,01,56,12.10
2008,09,16,01,57,12.10
2008,09,16,01,58,12.10
2008,09,16,01,59,12.10
2008,09,16,02,00,12.10
2008,09,16,02,01,12.10
2008,09,16,02,02,12.10
2008,09,16,02,03,12.00
2008,09,16,02,04,12.00
2008,09,16,02,05,12.00
2008,09,16,02,06,12.00
2008,09,16,02,07,12.00
2008,09,16,02,08,12.00
2008,09,16,02,09,12.00
2008,09,16,02,10,11.90
2008,09,16,02,11,11.90
2008,09,16,02,12,11.90
2008,09,16,02,13,11.90
2008,09,16,02,14,11.90
2008,09,16,02,15,11.90
2008,09,16,02,16,11.90
2008,09,16,02,17,11.90
2008,09,16,02,18,11.90
2008,09,16,02,19,11.90
2008,09,16,02,20,11.90
2008,09,16,02,21,11.90
2008,09,16,02,22,11.90
2008,09,16,02,23,11.90
2008,09,16,02,24,11.90
2008,09,16,02,25,11.90
2008,09,16,02,26,11.90
2008,09,16,02,27,11.90
2008,09,16,02,28,11.90
2008,09,16,02,29,11.90
2008,09,16,02,30,11.90
2008,09,16,02,31,11.90
2008,09,16,02,32,11.90
2008,09,16,02,33,11.90
2008,09,16,02,34,11.90
2008,09,16,02,35,11.90
2008,09,16,02,36,11.80
2008,09,16,02,37,11.80
2008,09,16,02,38,11.80
2008,09,16,02,39,11.80
2008,09,16,02,40,11.80
2008,09,16,02,41,11.80
2008,09,16,02,42,11.80
2008,09,16,02,43,11.80
2008,09,16,02,44,11.80
2008,09,16,02,45,11.90
2008,09,16,02,46,11.80
2008,09,16,02,47,11.80
2008,09,16,02,48,11.80
2008,09,16,02,49,11.80
2008,09,16,02,50,11.80
2008,09,16,02,51,11.80
2008,09,16,02,52,11.80
2008,09,16,02,53,11.80
2008,09,16,02,54,11.80
2008,09,16,02,55,11.70
2008,09,16,02,56,11.70
2008,09,16,02,57,11.70
2008,09,16,02,58,11.80
2008,09,16,02,59,11.80
2008,09,16,03,00,11.80
2008,09,16,03,01,11.80
2008,09,16,03,02,11.80
2008,09,16,03,03,11.80
2008,09,16,03,04,11.80
2008,09,16,03,05,11.80
2008,09,16,03,06,11.80
2008,09,16,03,07,11.80
2008,09,16,03,08,11.80
2008,09,16,03,09,11.80
2008,09,16,03,10,11.80
2008,09,16,03,11,11.80
2008,09,16,03,12,11.80
2008,09,16,03,13,11.80
2008,09,16,03,14,11.80
2008,09,16,03,15,11.70
2008,09,16,03,16,11.70
2008,09,16,03,17,11.70
2008,09,16,03,18,11.70
2008,09,16,03,19,11.70
2008,09,16,03,20,11.70
2008,09,16,03,21,11.70
2008,09,16,03,22,11.70
2008,09,16,03,23,11.70
2008,09,16,03,24,11.70
2008,09,16,03,25,11.70
2008,09,16,03,26,11.70
2008,09,16,03,27,11.70
2008,09,16,03,28,11.70
2008,09,16,03,29,11.70
2008,09,16,03,30,11.70
2008,09,16,03,31,11.70
2008,09,16,03,32,11.70
2008,09,16,03,33,11.70
2008,09,16,03,34,11.70
2008,09,16,03,35,11.70
2008,09,16,03,36,11.70
2008,09,16,03,37,11.60
2008,09,16,03,38,11.60
2008,09,16,03,39,11.60
2008,09,16,03,40,11.60
2008,09,16,03,41,11.60
2008,09,16,03,42,11.60
2008,09,16,03,43,11.60
2008,09,16,03,44,11.60
2008,09,16,03,45,11.50
2008,09,16,03,46,11.50
2008,09,16,03,47,11.50
2008,09,16,03,48,11.50
2008,09,16,03,49,11.50
2008,09,16,03,50,11.50
2008,09,16,03,51,11.50
2008,09,16,03,52,11.50
2008,09,16,03,53,11.50
2008,09,16,03,54,11.50
2008,09,16,03,55,11.50
2008,09,16,03,56,11.50
2008,09,16,03,57,11.50
2008,09,16,03,58,11.50
2008,09,16,03,59,11.50
2008,09,16,04,00,11.50
2008,09,16,04,01,11.50
2008,09,16,04,02,11.50
2008,09,16,04,03,11.50
2008,09,16,04,04,11.40
2008,09,16,04,05,11.40
2008,09,16,04,06,11.40
2008,09,16,04,07,11.40
2008,09,16,04,08,11.40
2008,09,16,04,09,11.40
2008,09,16,04,10,11.40
2008,09,16,04,11,11.40
2008,09,16,04,12,11.40
2008,09,16,04,13,11.30
2008,09,16,04,14,11.30
2008,09,16,04,15,11.30
2008,09,16,04,16,11.30
2008,09,16,04,17,11.30
2008,09,16,04,18,11.30
2008,09,16,04,19,11.30
2008,09,16,04,20,11.30
2008,09,16,04,21,11.30
2008,09,16,04,22,11.30
2008,09,16,04,23,11.30
2008,09,16,04,24,11.30
2008,09,16,04,25,11.30
2008,09,16,04,26,11.30
2008,09,16,04,27,11.30
2008,09,16,04,28,11.30
2008,09,16,04,29,11.30
2008,09,16,04,30,11.30
2008,09,16,04,31,11.30
2008,09,16,04,32,11.30
2008,09,16,04,33,11.30
2008,09,16,04,34,11.30
2008,09,16,04,35,11.30
2008,09,16,04,36,11.30
2008,09,16,04,37,11.30
2008,09,16,04,38,11.30
2008,09,16,04,39,11.30
2008,09,16,04,40,11.20
2008,09,16,04,41,11.20
2008,09,16,04,42,11.20
2008,09,16,04,43,11.20
2008,09,16,04,44,11.20
2008,09,16,04,45,11.20
2008,09,16,04,46,11.20
2008,09,16,04,47,11.20
2008,09,16,04,48,11.20
2008,09,16,04,49,11.20
2008,09,16,04,50,11.20
2008,09,16,04,51,11.20
2008,09,16,04,52,11.20
2008,09,16,04,53,11.20
2008,09,16,04,54,11.20
2008,09,16,04,55,11.10
2008,09,16,04,56,11.10
2008,09,16,04,57,11.10
2008,09,16,04,58,11.10
2008,09,16,04,59,11.10
2008,09,16,05,00,11.10
2008,09,16,05,01,11.10
2008,09,16,05,02,11.10
2008,09,16,05,03,11.10
2008,09,16,05,04,11.00
2008,09,16,05,05,11.00
2008,09,16,05,06,11.00
2008,09,16,05,07,11.00
2008,09,16,05,08,11.00
2008,09,16,05,09,11.00
2008,09,16,05,10,11.00
2008,09,16,05,11,11.00
2008,09,16,05,12,11.00
2008,09,16,05,13,11.00
2008,09,16,05,14,11.00
2008,09,16,05,15,11.00
2008,09,16,05,16,11.00
2008,09,16,05,17,11.00
2008,09,16,05,18,11.00
2008,09,16,05,19,11.00
2008,09,16,05,20,11.00
2008,09,16,05,21,11.00
2008,09,16,05,22,11.00
2008,09,16,05,23,11.00
2008,09,16,05,24,10.90
2008,09,16,05,25,10.90
2008,09,16,05,26,10.90
2008,09,16,05,27,10.90
2008,09,16,05,28,10.90
2008,09,16,05,29,10.90
2008,09,16,05,30,10.90
2008,09,16,05,31,10.90
2008,09,16,05,32,10.90
2008,09,16,05,33,10.90
2008,09,16,05,34,10.90
2008,09,16,05,35,10.90
2008,09,16,05,36,10.90
2008,09,16,05,37,10.90
2008,09,16,05,38,10.90
2008,09,16,05,39,10.90
2008,09,16,05,40,10.80
2008,09,16,05,41,10.80
2008,09,16,05,42,10.90
2008,09,16,05,43,10.90
2008,09,16,05,44,10.90
2008,09,16,05,45,10.90
2008,09,16,05,46,10.90
2008,09,16,05,47,10.90
2008,09,16,05,48,10.90
2008,09,16,05,49,10.90
2008,09,16,05,50,10.90
2008,09,16,05,51,10.80
2008,09,16,05,52,10.80
2008,09,16,05,53,10.80
2008,09,16,05,54,10.80
2008,09,16,05,55,10.80
2008,09,16,05,56,10.80
2008,09,16,05,57,10.80
2008,09,16,05,58,10.80
2008,09,16,05,59,10.80
2008,09,16,06,00,10.80
2008,09,16,06,01,10.80
2008,09,16,06,02,10.80
2008,09,16,06,03,10.80
2008,09,16,06,04,10.80
2008,09,16,06,05,10.80
2008,09,16,06,06,10.80
2008,09,16,06,07,10.80
2008,09,16,06,08,10.80
2008,09,16,06,09,10.80
2008,09,16,06,10,10.80
2008,09,16,06,11,10.80
2008,09,16,06,12,10.70
2008,09,16,06,13,10.70
2008,09,16,06,14,10.80
2008,09,16,06,15,10.80
2008,09,16,06,16,10.80
2008,09,16,06,17,10.70
2008,09,16,06,18,10.70
2008,09,16,06,19,10.70
2008,09,16,06,20,10.70
2008,09,16,06,21,10.70
2008,09,16,06,22,10.70
2008,09,16,06,23,10.70
2008,09,16,06,24,10.70
2008,09,16,06,25,10.70
2008,09,16,06,26,10.70
2008,09,16,06,27,10.70
2008,09,16,06,28,10.70
2008,09,16,06,29,10.70
2008,09,16,06,30,10.70
2008,09,16,06,31,10.70
2008,09,16,06,32,10.70
2008,09,16,06,33,10.70
2008,09,16,06,34,10.70
2008,09,16,06,35,10.60
2008,09,16,06,36,10.70
2008,09,16,06,37,10.60
2008,09,16,06,38,10.60
2008,09,16,06,39,10.60
2008,09,16,06,40,10.60
2008,09,16,06,41,10.60
2008,09,16,06,42,10.60
2008,09,16,06,43,10.60
2008,09,16,06,44,10.60
2008,09,16,06,45,10.60
2008,09,16,06,46,10.60
2008,09,16,06,47,10.60
2008,09,16,06,48,10.60
2008,09,16,06,49,10.70
2008,09,16,06,50,10.70
2008,09,16,06,51,10.70
2008,09,16,06,52,10.70
2008,09,16,06,53,10.70
2008,09,16,06,54,10.70
2008,09,16,06,55,10.70
2008,09,16,06,56,10.70
2008,09,16,06,57,10.70
2008,09,16,06,58,10.70
2008,09,16,06,59,10.70
2008,09,16,07,00,10.70
2008,09,16,07,01,10.70
2008,09,16,07,02,10.70
2008,09,16,07,03,10.70
2008,09,16,07,04,10.70
2008,09,16,07,05,10.70
2008,09,16,07,06,10.70
2008,09,16,07,07,10.70
2008,09,16,07,08,10.70
2008,09,16,07,09,10.70
2008,09,16,07,10,10.70
2008,09,16,07,11,10.70
2008,09,16,07,12,10.70
2008,09,16,07,13,10.70
2008,09,16,07,14,10.70
2008,09,16,07,15,10.70
2008,09,16,07,16,10.70
2008,09,16,07,17,10.70
2008,09,16,07,18,10.70
2008,09,16,07,19,10.70
2008,09,16,07,20,10.60
2008,09,16,07,21,10.70
2008,09,16,07,22,10.60
2008,09,16,07,23,10.60
2008,09,16,07,24,10.60
2008,09,16,07,25,10.60
2008,09,16,07,26,10.60
2008,09,16,07,27,10.60
2008,09,16,07,28,10.60
2008,09,16,07,29,10.70
2008,09,16,07,30,10.70
2008,09,16,07,31,10.70
2008,09,16,07,32,10.70
2008,09,16,07,33,10.70
2008,09,16,07,34,10.70
2008,09,16,07,35,10.70
2008,09,16,07,36,10.70
2008,09,16,07,37,10.70
2008,09,16,07,38,10.70
2008,09,16,07,39,10.70
2008,09,16,07,40,10.70
2008,09,16,07,41,10.70
2008,09,16,07,42,10.70
2008,09,16,07,43,10.70
2008,09,16,07,44,10.80
2008,09,16,07,45,10.80
2008,09,16,07,46,10.80
2008,09,16,07,47,10.80
2008,09,16,07,48,10.80
2008,09,16,07,49,10.80
2008,09,16,07,50,10.80
2008,09,16,07,51,10.80
2008,09,16,07,52,10.80
2008,09,16,07,53,10.80
2008,09,16,07,54,10.90
2008,09,16,07,55,10.90
2008,09,16,07,56,10.90
2008,09,16,07,57,10.90
2008,09,16,07,58,11.00
2008,09,16,07,59,11.00
2008,09,16,08,00,11.00
2008,09,16,08,01,11.10
2008,09,16,08,02,11.10
2008,09,16,08,03,11.10
2008,09,16,08,04,11.20
2008,09,16,08,05,11.20
2008,09,16,08,06,11.20
2008,09,16,08,07,11.30
2008,09,16,08,08,11.30
2008,09,16,08,09,11.30
2008,09,16,08,10,11.40
2008,09,16,08,11,11.40
2008,09,16,08,12,11.40
2008,09,16,08,13,11.40
2008,09,16,08,14,11.40
2008,09,16,08,15,11.40
2008,09,16,08,16,11.40
2008,09,16,08,17,11.50
2008,09,16,08,18,11.60
2008,09,16,08,19,11.70
2008,09,16,08,20,11.70
2008,09,16,08,21,11.80
2008,09,16,08,22,11.90
2008,09,16,08,23,11.90
2008,09,16,08,24,12.00
2008,09,16,08,25,12.10
2008,09,16,08,26,12.20
2008,09,16,08,27,12.20
2008,09,16,08,28,12.30
2008,09,16,08,29,12.30
2008,09,16,08,30,12.40
2008,09,16,08,31,12.50
2008,09,16,08,32,12.60
2008,09,16,08,33,12.60
2008,09,16,08,34,12.70
2008,09,16,08,35,12.70
2008,09,16,08,36,12.80
2008,09,16,08,37,12.90
2008,09,16,08,38,12.90
2008,09,16,08,39,13.00
2008,09,16,08,40,13.10
2008,09,16,08,41,13.20
2008,09,16,08,42,13.30
2008,09,16,08,43,13.40
2008,09,16,08,44,13.50
2008,09,16,08,45,13.70
2008,09,16,08,46,13.80
2008,09,16,08,47,13.90
2008,09,16,08,48,14.00
2008,09,16,08,49,14.20
2008,09,16,08,50,14.30
2008,09,16,08,51,14.40
2008,09,16,08,52,14.60
2008,09,16,08,53,14.70
2008,09,16,08,54,14.80
2008,09,16,08,55,15.00
2008,09,16,08,56,15.00
2008,09,16,08,57,15.00
2008,09,16,08,58,15.10
2008,09,16,08,59,15.20
2008,09,16,09,00,15.30
2008,09,16,09,01,15.50
2008,09,16,09,02,15.60
2008,09,16,09,03,15.70
2008,09,16,09,04,15.70
2008,09,16,09,05,15.80
2008,09,16,09,06,15.80
2008,09,16,09,07,15.90
2008,09,16,09,08,16.00
2008,09,16,09,09,16.10
2008,09,16,09,10,16.10
2008,09,16,09,11,16.20
2008,09,16,09,12,16.20
2008,09,16,09,13,16.30
2008,09,16,09,14,16.20
2008,09,16,09,15,16.20
2008,09,16,09,16,16.20
2008,09,16,09,17,16.20
2008,09,16,09,18,16.20
2008,09,16,09,19,16.20
2008,09,16,09,20,16.20
2008,09,16,09,21,16.20
2008,09,16,09,22,16.20
2008,09,16,09,23,16.20
2008,09,16,09,24,16.30
2008,09,16,09,25,16.30
2008,09,16,09,26,16.30
2008,09,16,09,27,16.30
2008,09,16,09,28,16.30
2008,09,16,09,29,16.30
2008,09,16,09,30,16.30
2008,09,16,09,31,16.30
2008,09,16,09,32,16.30
2008,09,16,09,33,16.30
2008,09,16,09,34,16.40
2008,09,16,09,35,16.40
2008,09,16,09,36,16.40
2008,09,16,09,37,16.40
2008,09,16,09,38,16.50
2008,09,16,09,39,16.60
2008,09,16,09,40,16.60
2008,09,16,09,41,16.70
2008,09,16,09,42,16.70
2008,09,16,09,43,16.80
2008,09,16,09,44,16.80
2008,09,16,09,45,16.80
2008,09,16,09,46,16.90
2008,09,16,09,47,17.00
2008,09,16,09,48,17.00
2008,09,16,09,49,17.10
2008,09,16,09,50,17.10
2008,09,16,09,51,17.10
2008,09,16,09,52,17.10
2008,09,16,09,53,17.10
2008,09,16,09,54,17.10
2008,09,16,09,55,17.10
2008,09,16,09,56,17.10
2008,09,16,09,57,17.10
2008,09,16,09,58,17.10
2008,09,16,09,59,17.10
2008,09,16,10,00,17.10
2008,09,16,10,01,17.20
2008,09,16,10,02,17.20
2008,09,16,10,03,17.20
2008,09,16,10,04,17.30
2008,09,16,10,05,17.30
2008,09,16,10,06,17.30
2008,09,16,10,07,17.40
2008,09,16,10,08,17.40
2008,09,16,10,09,17.50
2008,09,16,10,10,17.60
2008,09,16,10,11,17.60
2008,09,16,10,12,17.70
2008,09,16,10,13,17.80
2008,09,16,10,14,17.90
2008,09,16,10,15,18.00
2008,09,16,10,16,18.10
2008,09,16,10,17,18.10
2008,09,16,10,18,18.20
2008,09,16,10,19,18.30
2008,09,16,10,20,18.40
2008,09,16,10,21,18.40
2008,09,16,10,22,18.50
2008,09,16,10,23,18.60
2008,09,16,10,24,18.60
2008,09,16,10,25,18.60
2008,09,16,10,26,18.60
2008,09,16,10,27,18.60
2008,09,16,10,28,18.60
2008,09,16,10,29,18.60
2008,09,16,10,30,18.50
2008,09,16,10,31,18.40
2008,09,16,10,32,18.40
2008,09,16,10,33,18.40
2008,09,16,10,34,18.30
2008,09,16,10,35,18.30
2008,09,16,10,36,18.30
2008,09,16,10,37,18.30
2008,09,16,10,38,18.30
2008,09,16,10,39,18.30
2008,09,16,10,40,18.20
2008,09,16,10,41,18.20
2008,09,16,10,42,18.20
2008,09,16,10,43,18.20
2008,09,16,10,44,18.20
2008,09,16,10,45,18.20
2008,09,16,10,46,18.20
2008,09,16,10,47,18.20
2008,09,16,10,48,18.20
2008,09,16,10,49,18.20
2008,09,16,10,50,18.20
2008,09,16,10,51,18.20
2008,09,16,10,52,18.20
2008,09,16,10,53,18.20
2008,09,16,10,54,18.30
2008,09,16,10,55,18.30
2008,09,16,10,56,18.30
2008,09,16,10,57,18.40
2008,09,16,10,58,18.50
2008,09,16,10,59,18.50
2008,09,16,11,00,18.60
2008,09,16,11,01,18.60
2008,09,16,11,02,18.70
2008,09,16,11,03,18.80
2008,09,16,11,04,18.80
2008,09,16,11,05,18.90
2008,09,16,11,06,18.90
2008,09,16,11,07,19.00
2008,09,16,11,08,19.10
2008,09,16,11,09,19.10
2008,09,16,11,10,19.10
2008,09,16,11,11,19.10
2008,09,16,11,12,19.20
2008,09,16,11,13,19.20
2008,09,16,11,14,19.20
2008,09,16,11,15,19.20
2008,09,16,11,16,19.20
2008,09,16,11,17,19.20
2008,09,16,11,18,19.30
2008,09,16,11,19,19.30
2008,09,16,11,20,19.30
2008,09,16,11,21,19.30
2008,09,16,11,22,19.30
2008,09,16,11,23,19.30
2008,09,16,11,24,19.30
2008,09,16,11,25,19.30
2008,09,16,11,26,19.40
2008,09,16,11,27,19.40
2008,09,16,11,28,19.50
2008,09,16,11,29,19.60
2008,09,16,11,30,19.60
2008,09,16,11,31,19.70
2008,09,16,11,32,19.70
2008,09,16,11,33,19.70
2008,09,16,11,34,19.80
2008,09,16,11,35,19.80
2008,09,16,11,36,19.80
2008,09,16,11,37,19.80
2008,09,16,11,38,19.90
2008,09,16,11,39,19.90
2008,09,16,11,40,19.90
2008,09,16,11,41,19.90
2008,09,16,11,42,19.90
2008,09,16,11,43,20.00
2008,09,16,11,44,20.00
2008,09,16,11,45,20.00
2008,09,16,11,46,20.10
2008,09,16,11,47,20.10
2008,09,16,11,48,20.10
2008,09,16,11,49,20.10
2008,09,16,11,50,20.10
2008,09,16,11,51,20.10
2008,09,16,11,52,20.20
2008,09,16,11,53,20.20
2008,09,16,11,54,20.30
2008,09,16,11,55,20.30
2008,09,16,11,56,20.30
2008,09,16,11,57,20.40
2008,09,16,11,58,20.50
2008,09,16,11,59,20.60
2008,09,16,12,00,20.60
2008,09,16,12,01,20.70
2008,09,16,12,02,20.70
2008,09,16,12,03,20.80
2008,09,16,12,04,20.80
2008,09,16,12,05,20.80
2008,09,16,12,06,20.90
2008,09,16,12,07,20.90
2008,09,16,12,08,21.00
2008,09,16,12,09,21.00
2008,09,16,12,10,21.10
2008,09,16,12,11,21.10
2008,09,16,12,12,21.10
2008,09,16,12,13,21.20
2008,09,16,12,14,21.20
2008,09,16,12,15,21.30
2008,09,16,12,16,21.30
2008,09,16,12,17,21.30
2008,09,16,12,18,21.30
2008,09,16,12,19,21.30
2008,09,16,12,20,21.30
2008,09,16,12,21,21.40
2008,09,16,12,22,21.40
2008,09,16,12,23,21.50
2008,09,16,12,24,21.50
2008,09,16,12,25,21.60
2008,09,16,12,26,21.60
2008,09,16,12,27,21.60
2008,09,16,12,28,21.60
2008,09,16,12,29,21.70
2008,09,16,12,30,21.70
2008,09,16,12,31,21.70
2008,09,16,12,32,21.70
2008,09,16,12,33,21.70
2008,09,16,12,34,21.70
2008,09,16,12,35,21.70
2008,09,16,12,36,21.70
2008,09,16,12,37,21.70
2008,09,16,12,38,21.80
2008,09,16,12,39,21.80
2008,09,16,12,40,21.80
2008,09,16,12,41,21.80
2008,09,16,12,42,21.90
2008,09,16,12,43,21.90
2008,09,16,12,44,22.00
2008,09,16,12,45,22.00
2008,09,16,12,46,22.10
2008,09,16,12,47,22.10
2008,09,16,12,48,22.20
2008,09,16,12,49,22.20
2008,09,16,12,50,22.20
2008,09,16,12,51,22.30
2008,09,16,12,52,22.30
2008,09,16,12,53,22.30
2008,09,16,12,54,22.30
2008,09,16,12,55,22.30
2008,09,16,12,56,22.30
2008,09,16,12,57,22.30
2008,09,16,12,58,22.30
2008,09,16,12,59,22.40
2008,09,16,13,00,22.40
2008,09,16,13,01,22.40
2008,09,16,13,02,22.40
2008,09,16,13,03,22.40
2008,09,16,13,04,22.40
2008,09,16,13,05,22.40
2008,09,16,13,06,22.40
2008,09,16,13,07,22.40
2008,09,16,13,08,22.40
2008,09,16,13,09,22.50
2008,09,16,13,10,22.50
2008,09,16,13,11,22.60
2008,09,16,13,12,22.60
2008,09,16,13,13,22.70
2008,09,16,13,14,22.70
2008,09,16,13,15,22.70
2008,09,16,13,16,22.80
2008,09,16,13,17,22.80
2008,09,16,13,18,22.80
2008,09,16,13,19,22.90
2008,09,16,13,20,22.90
2008,09,16,13,21,22.90
2008,09,16,13,22,22.90
2008,09,16,13,23,22.90
2008,09,16,13,24,22.90
2008,09,16,13,25,23.00
2008,09,16,13,26,23.00
2008,09,16,13,27,23.10
2008,09,16,13,28,23.10
2008,09,16,13,29,23.20
2008,09,16,13,30,23.20
2008,09,16,13,31,23.10
2008,09,16,13,32,23.10
2008,09,16,13,33,23.10
2008,09,16,13,34,23.10
2008,09,16,13,35,23.10
2008,09,16,13,36,23.10
2008,09,16,13,37,23.10
2008,09,16,13,38,23.10
2008,09,16,13,39,23.10
2008,09,16,13,40,23.10
2008,09,16,13,41,23.10
2008,09,16,13,42,23.10
2008,09,16,13,43,23.10
2008,09,16,13,44,23.10
2008,09,16,13,45,23.10
2008,09,16,13,46,23.10
2008,09,16,13,47,23.10
2008,09,16,13,48,23.20
2008,09,16,13,49,23.20
2008,09,16,13,50,23.30
2008,09,16,13,51,23.30
2008,09,16,13,52,23.30
2008,09,16,13,53,23.40
2008,09,16,13,54,23.40
2008,09,16,13,55,23.40
2008,09,16,13,56,23.40
2008,09,16,13,57,23.50
2008,09,16,13,58,23.50
2008,09,16,13,59,23.60
2008,09,16,14,00,23.70
2008,09,16,14,01,23.70
2008,09,16,14,02,23.60
2008,09,16,14,03,23.60
2008,09,16,14,04,23.60
2008,09,16,14,05,23.50
2008,09,16,14,06,23.50
2008,09,16,14,07,23.60
2008,09,16,14,08,23.60
2008,09,16,14,09,23.60
2008,09,16,14,10,23.70
2008,09,16,14,11,23.70
2008,09,16,14,12,23.70
2008,09,16,14,13,23.70
2008,09,16,14,14,23.70
2008,09,16,14,15,23.70
2008,09,16,14,16,23.70
2008,09,16,14,17,23.60
2008,09,16,14,18,23.60
2008,09,16,14,19,23.60
2008,09,16,14,20,23.60
2008,09,16,14,21,23.50
2008,09,16,14,22,23.50
2008,09,16,14,23,23.50
2008,09,16,14,24,23.50
2008,09,16,14,25,23.40
2008,09,16,14,26,23.40
2008,09,16,14,27,23.50
2008,09,16,14,28,23.50
2008,09,16,14,29,23.50
2008,09,16,14,30,23.60
2008,09,16,14,31,23.60
2008,09,16,14,32,23.60
2008,09,16,14,33,23.60
2008,09,16,14,34,23.70
2008,09,16,14,35,23.70
2008,09,16,14,36,23.80
2008,09,16,14,37,23.80
2008,09,16,14,38,23.80
2008,09,16,14,39,23.80
2008,09,16,14,40,23.80
2008,09,16,14,41,23.90
2008,09,16,14,42,23.90
2008,09,16,14,43,23.90
2008,09,16,14,44,24.00
2008,09,16,14,45,24.00
2008,09,16,14,46,24.10
2008,09,16,14,47,24.10
2008,09,16,14,48,24.20
2008,09,16,14,49,24.20
2008,09,16,14,50,24.20
2008,09,16,14,51,24.20
2008,09,16,14,52,24.20
2008,09,16,14,53,24.30
2008,09,16,14,54,24.30
2008,09,16,14,55,24.40
2008,09,16,14,56,24.40
2008,09,16,14,57,24.40
2008,09,16,14,58,24.40
2008,09,16,14,59,24.40
2008,09,16,15,00,24.40
2008,09,16,15,01,24.40
2008,09,16,15,02,24.40
2008,09,16,15,03,24.50
2008,09,16,15,04,24.50
2008,09,16,15,05,24.50
2008,09,16,15,06,24.40
2008,09,16,15,07,24.40
2008,09,16,15,08,24.40
2008,09,16,15,09,24.50
2008,09,16,15,10,24.50
2008,09,16,15,11,24.60
2008,09,16,15,12,24.60
2008,09,16,15,13,24.70
2008,09,16,15,14,24.70
2008,09,16,15,15,24.70
2008,09,16,15,16,24.60
2008,09,16,15,17,24.60
2008,09,16,15,18,24.60
2008,09,16,15,19,24.70
2008,09,16,15,20,24.70
2008,09,16,15,21,24.70
2008,09,16,15,22,24.70
2008,09,16,15,23,24.70
2008,09,16,15,24,24.70
2008,09,16,15,25,24.70
2008,09,16,15,26,24.70
2008,09,16,15,27,24.60
2008,09,16,15,28,24.60
2008,09,16,15,29,24.70
2008,09,16,15,30,24.70
2008,09,16,15,31,24.70
2008,09,16,15,32,24.70
2008,09,16,15,33,24.80
2008,09,16,15,34,24.90
2008,09,16,15,35,24.90
2008,09,16,15,36,24.90
2008,09,16,15,37,24.90
2008,09,16,15,38,24.90
2008,09,16,15,39,24.90
2008,09,16,15,40,24.90
2008,09,16,15,41,24.90
2008,09,16,15,42,24.80
2008,09,16,15,43,24.80
2008,09,16,15,44,24.80
2008,09,16,15,45,24.80
2008,09,16,15,46,24.90
2008,09,16,15,47,24.90
2008,09,16,15,48,24.90
2008,09,16,15,49,24.80
2008,09,16,15,50,24.80
2008,09,16,15,51,24.90
2008,09,16,15,52,24.90
2008,09,16,15,53,24.90
2008,09,16,15,54,24.90
2008,09,16,15,55,25.00
2008,09,16,15,56,25.00
2008,09,16,15,57,25.00
2008,09,16,15,58,25.10
2008,09,16,15,59,25.10
2008,09,16,16,00,25.20
2008,09,16,16,01,25.10
2008,09,16,16,02,25.10
2008,09,16,16,03,25.10
2008,09,16,16,04,25.10
2008,09,16,16,05,25.10
2008,09,16,16,06,25.00
2008,09,16,16,07,25.00
2008,09,16,16,08,25.10
2008,09,16,16,09,25.00
2008,09,16,16,10,25.00
2008,09,16,16,11,25.00
2008,09,16,16,12,25.00
2008,09,16,16,13,25.00
2008,09,16,16,14,25.10
2008,09,16,16,15,25.10
2008,09,16,16,16,25.10
2008,09,16,16,17,25.10
2008,09,16,16,18,25.20
2008,09,16,16,19,25.20
2008,09,16,16,20,25.20
2008,09,16,16,21,25.20
2008,09,16,16,22,25.30
2008,09,16,16,23,25.30
2008,09,16,16,24,25.40
2008,09,16,16,25,25.40
2008,09,16,16,26,25.40
2008,09,16,16,27,25.40
2008,09,16,16,28,25.40
2008,09,16,16,29,25.40
2008,09,16,16,30,25.40
2008,09,16,16,31,25.30
2008,09,16,16,32,25.30
2008,09,16,16,33,25.30
2008,09,16,16,34,25.30
2008,09,16,16,35,25.30
2008,09,16,16,36,25.30
2008,09,16,16,37,25.30
2008,09,16,16,38,25.20
2008,09,16,16,39,25.20
2008,09,16,16,40,25.20
2008,09,16,16,41,25.20
2008,09,16,16,42,25.20
2008,09,16,16,43,25.20
2008,09,16,16,44,25.30
2008,09,16,16,45,25.30
2008,09,16,16,46,25.30
2008,09,16,16,47,25.30
2008,09,16,16,48,25.30
2008,09,16,16,49,25.30
2008,09,16,16,50,25.30
2008,09,16,16,51,25.30
2008,09,16,16,52,25.30
2008,09,16,16,53,25.30
2008,09,16,16,54,25.30
2008,09,16,16,55,25.30
2008,09,16,16,56,25.40
2008,09,16,16,57,25.40
2008,09,16,16,58,25.40
2008,09,16,16,59,25.40
2008,09,16,17,00,25.40
2008,09,16,17,01,25.40
2008,09,16,17,02,25.40
2008,09,16,17,03,25.40
2008,09,16,17,04,25.30
2008,09,16,17,05,25.30
2008,09,16,17,06,25.30
2008,09,16,17,07,25.30
2008,09,16,17,08,25.20
2008,09,16,17,09,25.20
2008,09,16,17,10,25.20
2008,09,16,17,11,25.20
2008,09,16,17,12,25.20
2008,09,16,17,13,25.20
2008,09,16,17,14,25.20
2008,09,16,17,15,25.20
2008,09,16,17,16,25.10
2008,09,16,17,17,25.10
2008,09,16,17,18,25.10
2008,09,16,17,19,25.10